GW1983 Weather Reports


time (UTC)temp
C
wind
direction
speed
KPH
gust
KPH
rain 1hr
cm
rain 24hr
cm
rain mn
cm
humidity
%
barometer
mb
20260507084536 9 0 0.0 3.2 0.00 0.58 0.00 90 1005.8
20260507083035 9 360 0.0 6.4 0.00 0.58 0.00 89 1006.0
20260507081552 9 360 1.6 6.4 0.00 0.58 0.00 88 1006.0
20260507080045 10 360 1.6 6.4 0.00 0.58 0.00 88 1005.8
20260507074544 10 360 1.6 6.4 0.00 0.58 0.00 88 1005.5
20260507073053 10 360 1.6 6.4 0.00 0.58 0.00 89 1005.3
20260507071535 10 0 0.0 4.8 0.00 0.58 0.00 89 1005.5
20260507070121 10 360 0.0 8.0 0.00 0.58 0.00 88 1004.8
20260507064548 10 360 3.2 8.0 0.00 0.58 0.00 88 1004.9
20260507063041 10 360 1.6 6.4 0.00 0.58 0.00 89 1005.1
20260507061539 10 360 3.2 9.7 0.00 0.58 0.00 89 1005.0
20260507060040 11 360 1.6 6.4 0.00 0.58 0.00 90 1004.9
20260507054550 11 360 1.6 6.4 0.00 0.58 0.00 91 1005.0
20260507053045 11 360 1.6 8.0 0.00 0.58 0.00 91 1004.3
20260507051543 11 360 3.2 12.9 0.00 0.58 0.00 92 1004.7
20260507050041 11 360 3.2 14.5 0.00 0.58 0.00 93 1004.5
20260507044544 11 360 1.6 12.9 0.00 0.58 0.00 95 1004.4
20260507043044 12 360 3.2 12.9 0.00 0.58 0.00 97 1004.3
20260507041544 12 360 3.2 12.9 0.00 0.58 0.00 98 1003.7
20260507040049 11 0 1.6 6.4 0.00 0.58 0.00 98 1003.9
20260507034541 10 0 0.0 3.2 0.00 0.58 0.58 97 1004.2
20260507033035 10 0 0.0 4.8 0.03 0.58 0.58 97 1004.1
20260507031544 10 0 0.0 3.2 0.03 0.58 0.58 97 1003.7
20260507030047 10 0 0.0 3.2 0.03 0.58 0.58 97 1003.6
20260507024544 10 0 0.0 3.2 0.03 0.58 0.58 97 1003.8
20260507023042 10 171 1.6 4.8 0.00 0.56 0.56 97 1003.9
20260507021535 10 0 1.6 4.8 0.00 0.56 0.56 97 1003.9
20260507020052 10 360 0.0 4.8 0.00 0.56 0.56 97 1004.2
20260507014602 10 0 1.6 6.4 0.00 0.56 0.56 97 1004.1
20260507013043 10 149 1.6 6.4 0.00 0.56 0.56 97 1004.5
20260507011540 10 170 1.6 6.4 0.00 0.56 0.56 97 1004.6
20260507010039 10 0 0.0 3.2 0.03 0.56 0.56 97 1004.7
20260507004537 10 0 0.0 4.8 0.03 0.56 0.56 96 1004.6
20260507003044 10 158 1.6 4.8 0.03 0.56 0.56 97 1004.6
20260507001543 10 0 0.0 6.4 0.03 0.56 0.56 96 1004.7
20260507000045 10 190 0.0 3.2 0.00 0.53 0.53 96 1004.7
20260506234536 10 0 0.0 4.8 0.00 0.53 0.53 96 1004.7
20260506233035 10 0 0.0 3.2 0.03 0.53 0.53 96 1004.6
20260506231544 10 360 0.0 4.8 0.05 0.53 0.53 96 1004.8
20260506230046 10 0 0.0 3.2 0.08 0.53 0.53 96 1005.0
20260506224540 10 360 0.0 4.8 0.10 0.53 0.53 96 1005.0
20260506223039 10 360 1.6 9.7 0.13 0.51 0.51 96 1005.1
20260506221535 10 360 0.0 6.4 0.13 0.48 0.48 96 1005.1
20260506220038 10 302 1.6 3.2 0.13 0.43 0.43 96 1005.2
20260506214546 10 0 0.0 3.2 0.20 0.43 0.43 95 1005.6
20260506213041 10 0 0.0 4.8 0.20 0.38 0.38 95 1005.9
20260506211541 10 0 0.0 4.8 0.23 0.36 0.36 95 1006.0
20260506210043 10 360 1.6 8.0 0.20 0.30 0.30 94 1006.0
20260506204535 11 0 1.6 6.4 0.15 0.23 0.23 93 1006.1
20260506203035 11 0 0.0 6.4 0.15 0.18 0.18 92 1006.1
20260506201604 11 360 1.6 4.8 0.13 0.13 0.13 93 1005.9
20260506200044 12 0 1.6 4.8 0.10 0.10 0.10 93 1005.8
20260506194548 12 0 0.0 4.8 0.08 0.08 0.08 93 1006.4
20260506193042 11 0 0.0 3.2 0.03 0.03 0.03 93 1006.6
20260506191545 11 360 1.6 6.4 0.00 0.00 0.00 91 1007.0
20260506190045 11 0 0.0 3.2 0.00 0.00 0.00 90 1006.5
20260506184548 11 360 0.0 4.8 0.00 0.00 0.00 88 1006.5
20260506183040 11 360 0.0 3.2 0.00 0.00 0.00 86 1006.4
20260506181534 11 360 0.0 4.8 0.00 0.00 0.00 86 1006.3
20260506180045 11 360 0.0 6.4 0.00 0.00 0.00 86 1006.6
20260506174543 11 0 0.0 4.8 0.00 0.00 0.00 85 1006.6
20260506173048 11 360 0.0 6.4 0.00 0.00 0.00 86 1006.7
20260506171550 11 0 1.6 6.4 0.00 0.00 0.00 86 1007.0
20260506170050 11 360 0.0 6.4 0.00 0.00 0.00 86 1007.2
20260506164544 11 360 0.0 8.0 0.00 0.00 0.00 86 1007.5
20260506163100 12 360 0.0 4.8 0.00 0.00 0.00 85 1007.8
20260506161542 12 173 0.0 6.4 0.00 0.00 0.00 85 1008.2
20260506160038 12 171 0.0 6.4 0.00 0.00 0.00 85 1008.3
20260506154539 12 144 1.6 8.0 0.00 0.00 0.00 85 1008.6
20260506153045 12 360 0.0 8.0 0.00 0.00 0.00 87 1008.4
20260506151539 12 360 1.6 6.4 0.00 0.00 0.00 87 1008.8
20260506150040 12 186 3.2 8.0 0.00 0.00 0.00 86 1008.3
20260506144537 12 161 3.2 9.7 0.00 0.00 0.00 85 1008.5
20260506143034 12 98 3.2 9.7 0.00 0.00 0.00 86 1008.3
20260506141549 12 173 1.6 9.7 0.00 0.00 0.00 88 1008.3
20260506140053 11 157 3.2 9.7 0.00 0.00 0.00 89 1008.6
20260506134539 11 130 1.6 11.3 0.00 0.00 0.00 89 1008.7
20260506133036 11 182 3.2 11.3 0.00 0.00 0.00 88 1008.6
20260506131545 11 135 1.6 11.3 0.00 0.00 0.00 89 1008.7
20260506130046 11 157 1.6 9.7 0.00 0.00 0.00 89 1008.6
20260506124544 11 182 1.6 8.0 0.00 0.00 0.00 89 1008.7
20260506123040 11 178 1.6 8.0 0.00 0.00 0.00 90 1008.7
20260506121535 11 0 0.0 3.2 0.00 0.00 0.00 90 1009.0
20260506120059 11 192 0.0 4.8 0.00 0.00 0.00 90 1009.2
20260506114550 11 360 0.0 3.2 0.00 0.00 0.00 91 1009.2
20260506113044 10 0 0.0 8.0 0.00 0.00 0.00 91 1009.1
20260506111543 10 360 0.0 4.8 0.00 0.00 0.00 90 1009.1
20260506110035 10 360 1.6 6.4 0.00 0.00 0.00 91 1009.0
20260506104541 10 0 0.0 6.4 0.00 0.00 0.00 91 1009.3
20260506103034 10 188 0.0 3.2 0.00 0.00 0.00 91 1009.2
20260506101545 10 175 1.6 4.8 0.00 0.00 0.00 91 1009.1
20260506100047 10 159 0.0 3.2 0.00 0.00 0.00 91 1009.1
20260506094545 10 0 0.0 4.8 0.00 0.00 0.00 91 1009.1
20260506093058 10 169 0.0 4.8 0.00 0.00 0.00 90 1009.0
20260506091547 10 184 0.0 6.4 0.00 0.00 0.00 90 1008.9
20260506090049 10 5 0.0 4.8 0.00 0.00 0.00 90 1008.9